Regional Weather Roundup
Issued by NWS

Home | Current Version | Previous Version | Text Only | Print | Product List | Glossary Off
Versions: 1 2 3 4 5 6 7 8 9 10 11 12 13 14 15 16 17 18 19 20 21 22 23 24 25 26 27 28 29 30 31 32 33 34 35 36 37 38 39 40 41 42 43 44 45 46 47 48 49 50

000
ASUS43 KBIS 240702
RWRND

NORTH DAKOTA REGIONAL WEATHER ROUNDUP
NATIONAL WEATHER SERVICE BISMARCK ND
200 AM CDT SUN SEP 24 2017

NOTE: "FAIR" INDICATES FEW OR NO CLOUDS BELOW 12,000 FEET WITH NO
SIGNIFICANT WEATHER AND/OR OBSTRUCTIONS TO VISIBILITY.


NDZ001>003-009>011-017-240800-
NORTHWEST NORTH DAKOTA

CITY           SKY/WX    TMP DP  RH WIND       PRES   REMARKS
WILLISTON      LGT RAIN  45  43  93 N5        30.13F
MINOT          RAIN      47  46  97 N12       30.09S
MINOT AFB      LGT RAIN  46  45  95 N7        30.08F
$$

NDZ018>021-031>035-040>046-240800-
SOUTHWEST NORTH DAKOTA

CITY           SKY/WX    TMP DP  RH WIND       PRES   REMARKS
BISMARCK       RAIN      49  48  97 N13       30.02F
DICKINSON      LGT RAIN  44  44 100 N10       30.03F
GARRISON         N/A     46  46 100 N9        30.07F
HETTINGER ARPT LGT RAIN  45  42  89 NE13      30.03F
$$

NDZ004>008-012>016-024-026-027-054-240800-
NORTHEAST NORTH DAKOTA

CITY           SKY/WX    TMP DP  RH WIND       PRES   REMARKS
GRAND FORKS    LGT RAIN  54  54 100 NE14      29.95F
GRND FRKS AFB  LGT RAIN  52  52  99 N10       29.98F
DEVILS LAKE    LGT RAIN  49  48  97 N10       30.03F
$$

NDZ022-023-025-028>030-036>039-047>053-240800-
SOUTHEAST NORTH DAKOTA

CITY           SKY/WX    TMP DP  RH WIND       PRES   REMARKS
FARGO          CLOUDY    56  56 100 N7        29.90R
JAMESTOWN      LGT RAIN  50  49  96 N9        29.96F FOG
$$





USA.gov is the U.S. government's official web portal to all federal, state and local government web resources and services.